DW1053 Weather Reports


Display with metric or nautical units.
time (UTC)temp
F
wind
direction
speed
MPH
gust
MPH
rain 1hr
in
rain 24hr
in
rain mn
in
humidity
%
barometer
mb
20260508190207 65 314 0.0 9.0 0.00 0.00 0.00 54 1010.3
20260508180206 67 306 0.0 5.0 0.00 0.00 0.00 44 1009.9
20260508170207 69 288 0.0 2.0 0.00 0.00 0.00 36 1009.5
20260508160207 69 304 1.0 7.0 0.00 0.00 0.00 36 1009.4
20260508150207 70 291 1.0 6.0 0.00 0.00 0.00 35 1009.6
20260508140214 71 312 0.0 5.0 0.00 0.00 0.00 39 1010.1
20260508130207 73 306 1.0 6.0 0.00 0.00 0.00 46 1010.5
20260508120207 71 294 0.0 7.0 0.00 0.00 0.00 48 1010.9
20260508110207 70 306 0.0 9.0 0.00 0.00 0.00 59 1011.2
20260508100215 66 349 0.0 5.0 0.00 0.00 0.00 53 1011.6
20260508080206 57 148 0.0 0.0 0.00 0.00 0.00 72 1011.6
20260508060233 47 150 0.0 1.0 0.00 0.01 0.00 93 1011.2
20260508050212 45 154 0.0 0.0 0.00 0.02 0.00 92 1010.9
20260508030207 46 292 0.0 0.0 0.00 0.02 0.00 91 1010.8
20260508020206 47 292 0.0 0.0 0.00 0.02 0.00 90 1010.6
20260508010224 48 292 0.0 0.0 0.00 0.05 0.00 89 1010.4
20260508000212 49 292 0.0 0.0 0.00 0.06 0.00 87 1010.6
20260507220206 52 303 0.0 0.0 0.00 0.06 0.06 84 1011.3
20260507210206 53 320 0.0 0.0 0.00 0.06 0.06 83 1011.2
20260507200206 54 321 0.0 4.0 0.00 0.06 0.06 79 1010.8